sat.trackr.live / text

‹ back to catalog

STARLINK-37194

NORAD 68397 · 2026-063T

PAYLOAD ACTIVE UNKNOWN

§ Identity

Operator
Country
US
Launch date
2026-03-26
Launch site
AFWTR
Launch vehicle
Mass (kg)
RCS (m²)

Purposes: comms

External: N2YO · Heavens-Above · Gunter

§ Orbital elements

Epoch: 2026-05-25T03:45:03.475872Z

Period
93.91 min
Inclination
97.2854°
Eccentricity
0.0001449
Mean motion
15.33457111 rev/d
Perigee alt
464.5 km
Apogee alt
466.5 km
Semi-major
6,843.6 km
B*
7.6548e-4
RAAN
287.7121°
Arg perigee
89.1336°
Mean anomaly
271.0072°
Rev number
961

§ Raw data

STARLINK-371941 68397U 26063T   26145.15629023  .00024728  00000+0  76548-3 0  99912 68397  97.2854 287.7121 0001449  89.1336 271.0072 15.33457111  9612

JSON: /api/v1/satellites/68397 · /tle

For live sub-satellite position, see the globe view (requires WebGL).

§ Visibility from observer

Set your observer location to see the next 7 days of passes ≥ 10°. The values pass through the URL so the page stays shareable.

No JS? Fill the form by hand. The geolocation button needs JavaScript.